Regional Weather Roundup
Issued by NWS

Home | Current Version | Previous Version | Graphics & Text | Print | Product List | Glossary On
Versions: 1 2 3 4 5 6 7 8 9 10 11 12 13 14 15 16 17 18 19 20 21 22 23 24 25 26 27 28 29 30 31 32 33 34 35 36 37 38 39 40 41 42 43 44 45 46 47 48 49 50
000
ASUS43 KLOT 040621
RWRIL

ILLINOIS REGIONAL WEATHER ROUNDUP
NATIONAL WEATHER SERVICE CHICAGO/ROMEOVILLE IL
100 AM CDT FRI SEP 04 2015

NOTE: "FAIR" INDICATES FEW OR NO CLOUDS BELOW 12,000 FEET WITH NO
SIGNIFICANT WEATHER AND/OR OBSTRUCTIONS TO VISIBILITY.

* THESE STATIONS ARE NOT UNDER NWS QUALITY CONTROL. THEY ALSO MAY NOT
  REPORT WEATHER SUCH AS PRECIPITATION OR FOG.

ILZ001-002-007-009-015-016-024-040700-
NORTHWEST ILLINOIS

CITY           SKY/WX    TMP DP  RH WIND       PRES   REMARKS
MOLINE         CLEAR     75  69  81 CALM      29.93R
6HR MIN TEMP:  75; 6HR MAX TEMP:  88;

STERLING*      CLEAR     72  70  94 CALM      29.93R
SAVANNA*       CLEAR     73  70  92 NE3       29.94R
$$

ILZ003-004-008-010-011-017-018-040700-
NORTH CENTRAL ILLINOIS

CITY           SKY/WX    TMP DP  RH WIND       PRES   REMARKS
ROCKFORD       CLEAR     71  66  84 E6        29.98R
6HR MIN TEMP:  71; 6HR MAX TEMP:  86;

FREEPORT*      CLEAR     69  68  97 E8        29.99R FOG
ROCHELLE*      CLEAR     70  67  90 E7        29.97R
DE KALB*       CLEAR     68  66  93 E6        29.98S
PERU*          CLEAR     76  69  79 CALM      29.95R
$$

ILZ005-006-012>014-019>023-040700-
NORTHEAST ILLINOIS

CITY           SKY/WX    TMP DP  RH WIND       PRES   REMARKS
CHICAGO-OHARE  PTCLDY    71  67  87 NE8       29.97R
6HR MIN TEMP:  71; 6HR MAX TEMP:  76;

CHICAGO-MIDWAY PTCLDY    74  67  78 E9        29.97R
6HR MIN TEMP:  74; 6HR MAX TEMP:  89;

AURORA         CLEAR     71  67  87 NE3       29.97R
6HR MIN TEMP:  71; 6HR MAX TEMP:  85;

LANSING*       PTCLDY    71  67  88 NE5       29.97S
JOLIET*        CLEAR     73  69  88 NE6       29.96R
WAUKEGAN       CLOUDY    68  65  90 CALM      29.96F
6HR MIN TEMP:  67; 6HR MAX TEMP:  69;

DUPAGE AIRPORT CLEAR     71  65  81 E7        29.97R
6HR MIN TEMP:  70; 6HR MAX TEMP:  86;

KANKAKEE*      CLEAR     71  69  93 NE5       29.96S
WHEELING       PTCLDY    69  66  90 CALM      29.98S
6HR MIN TEMP:  69; 6HR MAX TEMP:  73;

MORRIS*        CLEAR     71  68  91 CALM      29.95R FOG
ROMEOVILLE*    PTCLDY    71  66  85 E7        29.97R
NORTHERLY ISL    N/A     69  66  90 MISG        N/A
$$

LMZ740>746-040700-
SOUTHERN LAKE MICHIGAN

STATION/POSITION SKY/WX   TEMP    WIND        PRES    VSBY  WAVE
                          AIR SEA DIR/SP/G                  HT/PER
                          (F)     (DEG/KT/KT) (MB)    (MI)  (FT/S)
SOUTHERN BUOY              69 71  330/  6/  8 1013.7F         1/ 4
WILMETTE HARBOR            67 71  120/  4/  6   N/A           2/ 2
HARRISON CRIB              70     360/  5/  6   N/A
BURNHAM HARBOR             69      20/  4/  6   N/A
CALUMET HARBOR             71      30/  4/  6   N/A
BURNS HARBOR               72      50/ 10/ 11 1014.9S
MICHIGAN CITY              71      10/  9/ 10   N/A
MICHIGAN CITY 6N           72 73   40/  6/  8   N/A           2/ 4
ST. JOSEPH                 71 73   40/  4/  6   N/A           2/ 4
$$

ILZ025>027-034>036-040-047-049-050-058-095>099-040700-
WEST-CENTRAL ILLINOIS

CITY           SKY/WX    TMP DP  RH WIND       PRES   REMARKS
QUINCY         CLEAR     75  67  76 S3        29.95S
GALESBURG*     CLEAR     72  68  88 S3        29.95R
MACOMB*        CLEAR     70  68  92 SW5       29.97S
JACKSONVILLE*  CLEAR     77  69  78 S3        29.95S
PITTSFIELD*    CLEAR     78  68  72 S3        29.97S
$$

ILZ028>032-037-038-041>044-048-051>054-059>061-040700-
CENTRAL ILLINOIS

CITY           SKY/WX    TMP DP  RH WIND       PRES   REMARKS
PONTIAC        CLEAR     71  70  97 CALM      29.95S
BLOOMINGTON    CLEAR     74  68  81 SW6       29.98R
DECATUR        CLEAR     75  67  76 SW5       29.97R
PEORIA         CLEAR     78  67  68 CALM      29.95R HX  80
6HR MIN TEMP:  78; 6HR MAX TEMP:  88; 6HR PCP: TRACE;

LACON*         CLEAR     71  69  92 CALM      29.94R
LINCOLN*       CLEAR     71  65  82 CALM      29.95S
SPRINGFIELD    FAIR      73  67  81 CALM      29.96R
6HR MIN TEMP:  73; 6HR MAX TEMP:  88;

TAYLORVILLE    CLEAR     70  68  94 S3        29.96F
$$

ILZ033-039-045-046-055>057-062-063-040700-
EAST-CENTRAL ILLINOIS

CITY           SKY/WX    TMP DP  RH WIND       PRES   REMARKS
CHAMPAIGN      CLEAR     71  68  90 W3        29.97R
RANTOUL*       CLEAR     76  69  81 W5        29.96S
MATTOON        CLEAR     77  66  68 SW5       29.96R
PARIS*         CLEAR     73  69  85 SW5       29.97S
$$

ILZ079-100>102-040700-
SOUTHWEST ILLINOIS

CITY           SKY/WX    TMP DP  RH WIND       PRES   REMARKS
ALTON          CLEAR     70  69  96 CALM      29.96S
BELLEVILLE     CLEAR     73  73  99 CALM      29.95
CAHOKIA*       CLEAR     75  69  81 CALM      29.96R
SPARTA*        CLEAR     72  70  93 CALM      29.98S
$$

ILZ064>066-069>071-074>076-080>082-084>086-088>090-092>094-040700-
SOUTH-CENTRAL ILLINOIS

CITY           SKY/WX    TMP DP  RH WIND       PRES   REMARKS
CARBONDALE     CLEAR     70  68  93 CALM      29.97R
6HR MIN TEMP:  70; 6HR MAX TEMP:  84;

CAIRO*         CLEAR     69  69 100 CALM      29.96S FOG
EFFINGHAM*     CLEAR     70  67  91 CALM      29.98S FOG
MARION         CLEAR     73  72  94 CALM      29.98R
MT. VERNON     CLEAR     66  63  88 CALM      29.98S
CENTRALIA*     CLEAR     71  70  98 CALM      29.96F
SALEM*         CLEAR     70  68  91 CALM      29.97S
METROPOLIS*    FOG       69  69 100 CALM      29.97S VSB 1/4
$$

ILZ067-068-072-073-078-083-087-091-040700-
SOUTHEAST ILLINOIS

CITY           SKY/WX    TMP DP  RH WIND       PRES   REMARKS
LAWRENCEVILLE  CLEAR     72  69  90 S3        29.97S
FLORA*         CLEAR     69  66  91 CALM      29.97S
FAIRFIELD*     CLEAR     69  68  96 CALM      29.96S
HARRISBURG*    CLEAR     67  66  95 CALM      29.97S FOG
ROBINSON*      CLEAR     68  67  96 CALM      29.97S
CARMI*         CLEAR     67  67  99 CALM      29.97R FOG
$$

ABBREVIATIONS USED IN REMARKS
   TC - TEMPERATURE IN CELSIUS
  WCI - WIND CHILL INDEX
   HX - HEAT INDEX
  VSB - VISIBILITY
$$



USA.gov is the U.S. government's official web portal to all federal, state and local government web resources and services.